Flag for Hong Kong Weather past 2 weeks in Kowloon, Hong Kong

Now
86 °F

Passing clouds.


Feels Like: 97 °F
Forecast: 83 / 91 °F
Wind: 7 mph from Northeast

Location: National Airport

Current Time: Sep 4, 2015 at 9:40:27 AM

Latest Report: Sep 4, 2015 at 9:00 AM


Visibility: N/A

Pressure: 29.95 "Hg

Humidity: 75%

Dew point: 77 °F

Location of KowloonLocation

Historic Weather in Kowloon — Graph

°F

Kowloon temperature yesterday

Maximum temperature yesterday: 86 °F (at 10:00 AM)
Minimum temperature yesterday: 79 °F (at 2:00 AM)
Average temperature yesterday: 84 °F

Past Weeks' High & Low Weather Summary

 TemperatureHumidityPressure
High95 °F (Aug 24, 4:30 PM)94% (Aug 21, 7:00 PM)29.95 "Hg (Aug 21, 7:00 PM)
Low77 °F (Aug 26, 1:30 PM)39% (Aug 24, 4:30 PM)29.47 "Hg (Aug 22, 4:00 PM)
Average85 °F75%29.70 "Hg
* Reported Aug 20 8:00 AM — Sep 4 8:30 AM, Kowloon, Weather by CustomWeather, © 2015

Note: Actual official high and low records may vary slightly from our data, if they occured in-between our weather recording intervals... More about our weather records

Advertising

Kowloon weather history for previous 24 hours

 ConditionsComfort  
Time TempWeatherWind HumidityBarometerVisibility
8:30 AM
Fri, Sep 4
86 °FPassing clouds.3 mph75%29.95 "HgN/A
8:00 AM84 °FPassing clouds.3 mph84%29.95 "HgN/A
7:30 AM82 °FPassing clouds.2 mph84%29.95 "HgN/A
7:00 AM82 °FPassing clouds.3 mph89%29.92 "HgN/A
6:30 AM82 °FPassing clouds.3 mph84%29.92 "HgN/A
5:00 AM82 °FPassing clouds.3 mph84%29.92 "HgN/A
4:30 AM82 °FPassing clouds.5 mph84%29.92 "HgN/A
4:00 AM82 °FPassing clouds.9 mph84%29.92 "HgN/A
3:30 AM82 °FPassing clouds.12 mph84%29.89 "HgN/A
3:00 AM82 °FPassing clouds.14 mph84%29.89 "HgN/A
2:30 AM82 °FPassing clouds.13 mph84%29.92 "HgN/A
2:00 AM82 °FPassing clouds.13 mph84%29.92 "HgN/A
1:30 AM82 °FPassing clouds.14 mph84%29.92 "HgN/A
1:00 AM82 °FPassing clouds.13 mph84%29.92 "HgN/A
12:30 AM82 °FPassing clouds.12 mph84%29.92 "HgN/A
12:00 AM82 °FPassing clouds.10 mph84%29.95 "HgN/A
11:30 PM
Thu, Sep 3
84 °FPassing clouds.7 mph79%29.95 "HgN/A
11:00 PM84 °FPassing clouds.9 mph84%29.95 "HgN/A
10:30 PM82 °FPassing clouds.12 mph89%29.95 "HgN/A
10:00 PM84 °FPassing clouds.12 mph84%29.95 "HgN/A
9:30 PM84 °FPassing clouds.8 mph84%29.92 "HgN/A
9:00 PM84 °FPassing clouds.7 mph79%29.92 "HgN/A
8:30 PM84 °FPassing clouds.8 mph79%29.92 "HgN/A
8:00 PM84 °FPassing clouds.8 mph79%29.92 "HgN/A
7:30 PM84 °FPassing clouds.8 mph79%29.89 "HgN/A
7:00 PM84 °FPassing clouds.8 mph79%29.89 "HgN/A
6:30 PM84 °FScattered clouds.9 mph79%29.89 "HgN/A
6:00 PM84 °FScattered clouds.9 mph79%29.86 "HgN/A
5:30 PM84 °FPassing clouds.8 mph79%29.86 "HgN/A
5:00 PM86 °FPassing clouds.6 mph75%29.89 "HgN/A
4:30 PM86 °FScattered clouds.7 mph75%29.89 "HgN/A
4:00 PM86 °FScattered clouds.8 mph75%29.89 "HgN/A
3:30 PM86 °FScattered clouds.7 mph75%29.89 "HgN/A
3:00 PM86 °FScattered clouds.3 mph79%29.89 "HgN/A
2:30 PM86 °FScattered clouds.9 mph75%29.89 "HgN/A
2:00 PM86 °FScattered clouds.10 mph79%29.89 "HgN/A
1:30 PM86 °FScattered clouds.7 mph79%29.92 "HgN/A
1:00 PM86 °FScattered clouds.7 mph75%29.92 "HgN/A
12:30 PM86 °FPassing clouds.7 mph75%29.92 "HgN/A
12:00 PM86 °FPassing clouds.8 mph75%29.92 "HgN/A
11:30 AM86 °FPassing clouds.9 mph79%29.92 "HgN/A
11:00 AM86 °FPassing clouds.9 mph75%29.92 "HgN/A
10:30 AM86 °FPassing clouds.12 mph75%29.95 "HgN/A
10:00 AM86 °FPassing clouds.9 mph75%29.92 "HgN/A
9:30 AM84 °FScattered clouds.9 mph79%29.92 "HgN/A
9:00 AM84 °FPassing clouds.13 mph79%29.92 "HgN/A
Weather by CustomWeather, © 2015

See weather overviewHow to use our weather pages